User: anonymous   Login
Location: Unspecified
(0.0000°N, 0.0000°E)
Time: 00:22:55
(UTC+00:00)
Language:

TBA - TO BE ASSIGNED - Orbit

View from above orbital plane
View from above orbital plane
View from above satellite
View from above satellite

Ground track
Ground track

The orbit is defined by the following mean orbital elements,

1 67588U          26144.76495304 +.00000000 +00000-0 +00000-0 0 00002
2 67588  55.0742  89.6948 0022702 256.4817 103.2392  2.00571625    07
Epoch (UTC): 24 May 2026 18:21:31
Eccentricity: 0.0022702
inclination: 55.0742°
perigee height: 20121 km
apogee height: 20242 km
right ascension of ascending node: 89.6948°
argument of perigee: 256.4817°
revolutions per day: 2.00571625
mean anomaly at epoch: 103.2392°

The dashed part of the orbit path shows where the satellite is in the earth's shadow,  

DLR